Satellite-Ground Cal/Val Region Overpasses Predictions

Prediction of Satellite NPP Overpassing Cal/Val Region: PacNW

Region Location: (Latitude: 10.00, Longitude: 139.50) to (Latitude: 22.70, Longitude: 165.60).

Table of predicted overpasses for the next 14.0 days since TLE Epoch: 12/24/2022
Interval Starting Time Starting Location Ending Time Ending Location
1 12/24/2022 16:03:02 ( 22.70, 144.48) 12/24/2022 16:06:38 ( 10.02, 141.45)
2 12/25/2022 03:12:08 ( 10.00, 151.98) 12/25/2022 03:15:44 ( 22.68, 148.96)
3 12/25/2022 15:44:01 ( 22.69, 149.23) 12/25/2022 15:47:37 ( 10.01, 146.21)
4 12/26/2022 02:53:07 ( 10.01, 156.73) 12/26/2022 02:56:43 ( 22.69, 153.71)
5 12/26/2022 15:25:01 ( 22.68, 153.98) 12/26/2022 15:28:36 ( 10.06, 150.97)
6 12/27/2022 02:34:07 ( 10.03, 161.49) 12/27/2022 02:37:42 ( 22.65, 158.48)
7 12/27/2022 15:06:01 ( 22.66, 158.73) 12/27/2022 15:09:36 ( 10.04, 155.72)
8 12/28/2022 02:15:54 ( 12.86, 165.59) 12/28/2022 02:18:41 ( 22.66, 163.23)
9 12/28/2022 03:56:36 ( 10.04, 140.86) 12/28/2022 03:58:15 ( 15.86, 139.51)
10 12/28/2022 14:47:00 ( 22.65, 163.48) 12/28/2022 14:50:35 ( 10.03, 160.48)
11 12/29/2022 03:37:36 ( 10.06, 145.62) 12/29/2022 03:41:11 ( 22.68, 142.61)
12 12/29/2022 14:31:08 ( 11.60, 165.59) 12/29/2022 14:31:35 ( 10.01, 165.23)
13 12/29/2022 16:09:29 ( 22.69, 142.88) 12/29/2022 16:13:05 ( 10.01, 139.85)
14 12/30/2022 03:18:34 ( 10.01, 150.38) 12/30/2022 03:22:10 ( 22.69, 147.36)
15 12/30/2022 15:50:28 ( 22.67, 147.63) 12/30/2022 15:54:03 ( 10.05, 144.62)
16 12/31/2022 02:59:34 ( 10.03, 155.13) 12/31/2022 03:03:09 ( 22.65, 152.13)
17 12/31/2022 15:31:28 ( 22.66, 152.38) 12/31/2022 15:35:03 ( 10.04, 149.37)
18 01/01/2023 02:40:33 ( 10.05, 159.89) 01/01/2023 02:44:08 ( 22.67, 156.88)
19 01/01/2023 15:12:26 ( 22.70, 157.14) 01/01/2023 15:16:02 ( 10.02, 154.12)
20 01/02/2023 02:21:32 ( 10.01, 164.65) 01/02/2023 02:25:08 ( 22.69, 161.63)
21 01/02/2023 14:53:26 ( 22.68, 161.90) 01/02/2023 14:57:02 ( 10.00, 158.87)
22 01/03/2023 03:44:01 ( 10.03, 144.03) 01/03/2023 03:47:36 ( 22.65, 141.02)
23 01/03/2023 14:35:38 ( 18.38, 165.59) 01/03/2023 14:38:00 ( 10.04, 163.64)
24 01/03/2023 16:15:55 ( 22.66, 141.27) 01/03/2023 16:17:59 ( 15.38, 139.50)
25 01/04/2023 03:25:01 ( 10.05, 148.78) 01/04/2023 03:28:36 ( 22.67, 145.77)
26 01/04/2023 15:56:54 ( 22.70, 146.04) 01/04/2023 16:00:30 ( 10.02, 143.01)
27 01/05/2023 03:06:00 ( 10.01, 153.54) 01/05/2023 03:09:36 ( 22.69, 150.52)
28 01/05/2023 15:37:53 ( 22.67, 150.79) 01/05/2023 15:41:28 ( 10.06, 147.78)
29 01/06/2023 02:46:59 ( 10.04, 158.29) 01/06/2023 02:50:34 ( 22.66, 155.28)
30 01/06/2023 15:18:53 ( 22.65, 155.54) 01/06/2023 15:22:28 ( 10.03, 152.53)
